User: anonymous   Login
Location: Isles
(48.9125°N, 2.8272°E)
Time: 00:43:13
(UTC+00:00)
Language:

Cosmos 1340 - Orbit

View from above orbital plane
View from above orbital plane
View from above satellite
View from above satellite

Ground track
Ground track

The orbit data is extracted from the following two-line orbital elements,

1 13067U 82013A   23153.31412566  .00010319  00000-0  35455-3 0  9992
2 13067  81.1814 108.4531 0005090  57.6089 302.5639 15.29978075258391
Epoch (UTC): 02 June 2023 07:32:20
Eccentricity: 0.0005090
inclination: 81.1814°
perigee height: 472 km
apogee height: 479 km
right ascension of ascending node: 108.4531°
argument of perigee: 57.6089°
revolutions per day: 15.29978075
mean anomaly at epoch: 302.5639°
orbit number at epoch: 25839

The dashed part of the orbit path shows where the satellite is in the earth's shadow,  

DLR